Theta_e
338 342 348 352 351 350 350 350 351 352 351 351 352 351 350 351 352 352 352 352 351 352 351 352 352 352 352 351 351 350 350 350 349 348 348 347 347 347 345 346 346 345 343 342 342 341 343 345 344 345 345 345 346 346 345 344 346 346 346 346 347 347 347 346 347 347 346 346 346 347 346 345 345 346 346 345 344 343 340 340 340 337 337 338 340
340 344 346 349 351 350 350 349 350 351 351 351 351 352 351 351 352 351 352 351 351 351 351 352 351 350 351 351 350 350 349 348 347 346 347 347 347 346 346 345 345 343 343 342 342 342 342 342 343 342 343 346 346 346 346 346 345 346 345 346 346 346 346 346 346 345 344 344 344 345 345 345 345 345 344 344 342 342 340 340 340 336 335 339 339
344 345 347 350 351 350 349 349 350 350 351 352 351 352 351 351 351 352 352 352 352 352 352 351 350 350 349 349 349 349 348 348 347 346 346 346 345 345 345 346 344 343 343 343 342 341 341 341 341 341 343 344 344 344 346 346 343 343 344 345 345 346 345 345 345 344 343 344 344 345 345 344 342 343 343 343 342 342 340 340 339 338 334 339 337
343 345 347 349 351 350 349 349 349 349 350 351 351 349 349 351 351 352 351 352 352 351 351 351 350 349 349 348 348 348 348 348 347 347 346 345 345 345 345 345 345 344 344 344 344 343 341 341 341 341 342 343 343 344 345 345 345 343 343 343 344 344 344 344 344 344 343 343 343 342 341 336 338 340 339 339 340 338 338 338 338 338 337 337 336
342 343 345 345 346 348 350 349 349 349 350 350 350 350 350 351 351 350 350 351 352 351 351 351 350 349 348 348 347 347 347 347 347 346 344 344 346 344 344 344 344 344 345 344 344 344 342 341 340 340 341 343 344 344 344 344 344 344 344 343 343 344 344 342 342 342 342 343 342 340 333 334 335 340 339 339 338 338 338 338 339 339 338 336 335
339 341 344 343 344 346 349 349 350 349 349 350 350 350 350 350 349 348 346 346 347 350 350 350 349 349 348 347 347 347 347 347 346 346 346 346 345 345 344 345 348 347 347 346 346 344 343 342 341 342 343 343 344 344 344 344 345 345 345 344 343 343 343 343 341 341 341 341 341 335 333 334 335 337 341 339 339 340 341 341 339 338 337 336 335
340 340 344 344 344 346 348 348 349 349 349 350 350 350 349 346 345 345 343 341 345 348 349 348 350 349 348 347 346 346 346 346 346 346 345 346 349 348 347 347 347 347 346 346 346 345 345 345 343 342 342 343 343 342 343 343 343 343 343 343 343 343 343 342 343 343 343 341 332 333 333 335 336 337 341 341 341 341 341 341 340 339 338 338 337
340 343 344 344 344 346 348 348 348 349 349 349 348 348 347 347 344 344 343 341 346 347 348 349 350 349 348 346 346 345 345 345 345 345 345 348 348 347 347 348 347 347 347 346 346 346 345 344 343 342 342 343 342 342 342 341 342 341 341 341 341 340 340 341 341 342 343 335 332 333 334 335 335 337 341 341 342 342 341 341 339 338 337 336 336
342 344 344 344 344 347 348 348 348 348 348 348 349 349 348 348 346 345 344 343 346 347 349 350 350 349 349 348 347 346 345 345 345 345 345 346 347 347 347 347 347 347 346 346 346 346 345 345 343 343 344 344 342 341 341 341 341 340 340 340 340 340 340 339 341 342 339 334 333 333 334 335 335 335 340 340 339 339 338 338 337 335 336 336 336
341 342 343 343 343 346 347 348 348 348 348 348 348 349 347 345 346 346 345 346 348 348 349 350 350 349 349 348 347 347 346 345 345 345 345 345 346 347 346 346 346 346 345 345 345 345 344 344 344 343 343 344 343 343 341 341 340 340 341 341 342 341 342 342 344 342 335 333 333 334 335 339 333 333 336 337 338 338 336 335 338 334 333 333 335
341 342 342 343 344 346 346 347 347 348 347 348 348 348 347 347 345 346 346 347 348 349 349 350 349 349 348 347 347 347 347 347 346 346 346 345 346 346 345 345 345 345 344 344 345 344 345 344 343 344 343 343 343 343 342 342 341 342 341 342 343 343 344 344 343 336 334 333 333 333 338 340 331 332 337 338 338 337 335 334 333 332 331 331 336
340 342 342 343 346 346 347 347 347 347 347 348 348 348 348 348 348 348 348 347 346 348 349 349 348 348 347 347 347 347 347 346 346 346 346 345 345 345 345 346 346 346 346 345 345 345 345 345 345 343 343 343 343 343 343 343 343 343 343 344 344 345 345 343 337 334 333 332 332 332 333 332 332 336 340 339 338 337 336 334 334 333 332 333 333
340 340 340 342 344 346 346 346 346 347 347 346 348 348 348 347 347 348 347 347 347 348 349 349 349 348 347 347 346 347 346 346 346 346 345 345 345 345 346 346 346 345 345 346 346 346 346 346 345 345 345 344 343 344 343 344 345 344 344 344 345 346 344 340 331 331 332 331 332 331 329 329 332 340 340 339 339 337 336 335 334 334 333 334 333
338 339 340 341 343 346 346 346 346 346 346 344 346 348 348 348 347 346 345 345 346 348 348 349 349 348 347 347 346 346 346 346 345 345 345 344 344 346 346 346 345 345 345 346 346 346 346 347 346 346 345 345 345 344 344 345 345 344 345 346 346 346 345 341 336 329 330 329 330 328 328 331 333 340 339 339 339 337 335 335 334 334 334 333 332
338 339 339 340 341 343 346 345 345 346 346 346 346 347 347 347 347 346 345 345 346 347 348 348 348 348 348 347 346 346 346 346 345 345 345 344 344 344 345 345 345 344 344 345 346 346 346 347 347 346 346 346 345 345 345 345 345 345 346 346 346 346 346 338 336 329 330 331 330 331 328 330 340 339 339 339 339 337 336 335 334 334 333 333 331
340 339 340 340 341 342 343 344 345 345 345 345 346 346 346 347 346 345 345 345 344 346 347 347 347 348 348 348 347 345 346 346 346 346 345 345 345 345 345 345 344 344 344 344 345 345 345 346 347 347 346 346 345 345 345 345 345 345 345 345 346 346 347 343 335 330 331 331 331 331 329 333 340 339 339 340 339 338 336 335 333 333 332 331 330
339 339 338 340 341 342 342 342 343 344 345 345 345 346 347 347 346 344 344 344 344 344 346 347 347 348 347 347 347 347 345 344 345 345 345 345 345 344 344 344 344 344 343 343 344 345 345 345 345 345 345 345 345 345 346 345 345 345 345 346 346 347 347 345 337 330 330 333 334 332 331 334 339 340 341 340 339 337 335 333 332 334 332 331 330
338 337 337 338 339 339 339 339 339 339 340 344 344 345 346 347 346 345 345 345 345 345 346 347 347 347 347 347 347 347 346 346 344 344 344 344 344 343 343 343 343 343 343 342 342 344 345 345 344 344 344 344 344 344 345 345 345 345 346 346 346 346 346 342 333 332 331 337 332 334 334 340 341 341 341 340 338 335 334 334 331 330 331 331 330
337 337 337 337 338 340 339 339 339 338 337 338 339 344 346 345 345 345 346 345 345 346 347 346 347 347 347 347 347 347 346 346 345 344 343 342 342 342 341 342 342 343 342 341 342 342 344 345 345 344 343 343 342 343 343 343 344 345 345 346 347 348 344 340 332 328 334 335 332 332 331 342 341 341 341 340 337 334 335 335 333 331 330 331 330
337 337 337 337 337 337 338 339 339 337 337 337 340 342 345 346 345 345 345 346 346 346 346 346 346 346 345 346 346 347 347 346 346 344 344 343 342 341 342 342 342 342 342 342 341 341 341 342 343 343 343 343 343 344 344 343 344 345 346 346 347 348 335 333 335 330 332 330 334 331 337 342 342 342 341 339 336 335 334 334 333 332 332 331 331
336 336 335 335 336 336 337 338 338 337 338 339 340 341 344 345 345 346 346 346 345 346 346 345 344 344 344 344 344 343 340 338 337 340 345 342 345 344 343 343 343 342 342 342 342 342 341 341 341 342 342 343 343 343 344 344 345 345 346 346 347 337 334 334 334 334 330 333 336 331 340 342 342 342 340 337 336 335 334 334 333 333 333 333 332
333 333 334 334 335 337 338 338 337 336 337 338 339 339 340 341 338 339 341 343 345 344 341 341 344 338 343 340 339 343 339 338 338 346 343 343 345 345 344 344 343 343 343 343 343 342 342 342 341 342 342 343 343 335 337 342 344 346 347 348 340 335 334 333 333 328 333 332 334 334 342 343 341 340 339 337 337 336 335 334 333 333 331 332 332
330 330 330 332 332 332 334 335 335 335 336 336 338 338 336 335 337 338 341 344 343 341 337 338 333 336 337 338 340 339 340 340 339 343 343 347 345 345 346 346 345 345 345 344 344 344 343 343 342 342 343 344 338 333 334 332 333 342 343 338 333 334 334 334 330 330 332 332 331 338 343 342 340 339 338 336 337 336 335 334 333 332 334 333 332
326 327 328 332 331 331 332 333 335 334 334 334 335 334 335 334 336 336 336 337 336 337 335 337 336 334 335 336 338 339 338 336 345 345 346 344 342 348 347 347 347 346 346 345 345 345 345 345 344 343 344 341 335 332 333 331 331 332 334 335 333 334 334 334 332 327 329 335 332 342 344 341 340 339 338 336 336 337 336 334 334 332 332 333 332
327 330 331 331 330 331 331 331 333 334 335 336 337 335 335 336 336 337 336 337 335 334 335 336 337 336 337 337 335 338 336 334 334 335 335 338 338 339 341 339 341 339 346 338 337 339 338 335 335 338 335 335 334 332 329 328 333 334 334 335 335 335 334 337 333 325 328 334 334 343 342 340 339 339 339 337 335 336 335 335 334 334 333 333 333
331 327 327 328 331 332 332 334 335 335 334 335 336 338 340 336 335 335 338 338 338 336 334 333 334 336 337 336 337 332 333 334 333 333 335 335 337 337 340 338 338 342 343 340 338 338 337 337 337 337 335 334 333 331 328 333 329 333 334 335 335 336 335 335 333 326 328 330 334 343 341 340 339 339 338 338 337 336 335 335 335 334 334 333 333
326 326 328 329 331 331 332 331 330 332 333 334 337 339 336 337 335 336 336 336 337 335 334 335 334 336 337 337 334 333 332 333 333 332 333 335 336 337 338 339 339 339 342 340 338 338 337 337 336 337 336 334 333 330 331 336 335 334 334 335 336 337 337 336 335 328 328 329 335 343 342 341 340 339 338 338 338 337 336 336 335 334 334 334 334
327 327 328 328 331 330 331 331 329 331 331 334 337 336 336 337 338 342 337 343 339 333 334 335 336 335 337 337 338 333 331 330 331 330 331 332 336 338 338 338 339 339 339 340 338 337 337 336 337 336 336 333 332 335 336 336 336 334 333 333 335 337 336 336 334 329 328 329 332 342 343 341 340 341 339 338 338 339 338 336 336 336 335 335 335
324 325 326 327 328 329 330 330 329 331 331 333 335 335 336 336 337 336 336 344 333 335 335 336 336 336 338 337 340 333 332 330 329 330 330 331 332 335 335 338 339 339 338 339 339 337 335 335 335 335 335 334 334 335 336 335 334 334 333 333 334 334 336 336 335 333 332 329 331 337 343 342 340 340 339 339 338 339 338 337 337 337 336 336 336
325 324 326 327 327 328 328 328 329 330 331 332 332 332 333 333 334 335 336 342 334 336 337 334 335 336 335 336 336 334 331 330 330 330 330 330 332 333 335 336 337 338 338 338 337 335 335 333 333 332 332 332 332 333 336 333 333 333 332 332 335 336 338 337 336 336 335 334 332 336 343 342 341 341 339 339 339 339 339 339 338 338 337 337 337
326 325 326 327 329 327 327 328 329 334 331 330 331 331 333 332 335 334 336 338 337 340 338 334 334 334 334 335 334 337 333 332 330 330 331 331 332 333 335 335 334 334 336 337 336 335 334 333 333 332 331 331 332 333 336 334 332 332 333 333 334 337 338 338 337 336 335 335 334 334 340 344 342 342 341 341 340 339 339 339 339 339 338 338 338
324 324 326 326 326 326 327 326 327 328 331 328 329 330 331 331 335 333 335 336 339 336 335 334 337 333 333 334 334 332 335 330 330 331 331 332 332 331 330 333 333 333 334 335 334 335 335 334 334 334 334 335 335 335 333 332 331 331 331 332 334 335 336 334 336 337 334 333 334 334 334 340 344 343 342 341 341 341 341 341 340 340 339 339 339
325 326 325 325 324 324 326 326 326 327 327 328 328 329 330 332 331 332 334 338 335 336 334 332 331 334 334 334 333 334 335 331 330 331 334 329 328 327 327 329 329 332 333 334 334 333 332 332 332 334 333 333 333 332 334 332 331 330 331 332 335 335 336 335 335 335 336 335 334 334 334 336 338 344 344 342 341 341 342 342 342 342 341 341 341
325 324 325 325 327 328 329 329 328 326 329 326 329 326 328 328 332 331 336 331 324 332 336 333 336 333 331 330 330 333 330 329 328 327 327 327 327 327 327 327 330 333 335 334 332 332 331 330 331 331 336 335 330 331 332 331 331 331 331 334 335 336 335 335 335 335 336 336 335 333 334 333 334 336 340 344 342 341 342 342 342 342 342 342 342
328 326 325 325 328 326 329 326 330 324 325 324 324 325 327 324 322 324 324 326 325 324 322 326 327 329 329 329 330 332 331 330 328 327 326 326 326 326 326 327 331 332 331 333 332 332 332 331 332 332 332 331 330 334 332 331 330 331 330 331 332 334 333 334 334 335 336 336 333 334 334 334 333 332 334 334 342 343 342 342 340 342 341 340 341
326 325 326 324 323 323 328 324 326 324 323 328 325 324 323 324 322 332 323 325 325 326 325 326 327 327 328 327 328 332 329 329 329 327 325 325 324 325 326 328 330 330 330 330 330 330 329 331 332 332 329 329 330 329 330 329 328 328 329 329 330 332 331 332 333 334 335 334 336 335 334 334 334 334 337 332 332 335 339 338 338 339 339 338 339
326 324 323 322 323 322 330 323 323 323 324 324 323 321 319 320 324 324 325 324 324 325 326 325 325 326 325 325 326 330 327 326 326 327 326 324 324 325 326 328 329 328 328 328 328 330 328 329 327 331 328 326 326 327 327 329 328 329 329 329 331 331 331 332 333 333 336 335 335 336 334 334 334 341 336 335 335 333 336 337 338 339 339 338 338
328 325 323 323 323 324 324 323 321 323 321 320 323 321 322 323 322 322 332 323 323 324 325 325 324 324 325 325 324 326 330 326 326 325 325 327 325 325 325 327 328 327 328 327 326 327 327 326 326 325 328 326 325 325 326 327 331 331 329 331 331 330 330 331 333 337 333 333 333 334 334 333 333 335 335 335 336 335 335 337 338 339 339 338 338
328 326 325 323 323 322 324 327 322 319 319 319 320 322 320 319 319 323 323 323 323 322 323 322 323 324 324 325 327 327 329 327 328 327 326 326 324 325 324 325 326 326 325 325 326 327 327 324 325 326 326 327 326 325 325 326 327 327 328 328 329 330 330 331 333 334 333 333 333 333 333 332 334 334 333 333 333 334 333 333 333 333 334 338 338
325 325 324 322 320 319 319 321 320 319 322 320 319 319 321 321 318 321 322 324 322 325 322 322 322 322 328 326 326 325 326 329 327 326 327 327 324 324 324 325 327 325 326 325 324 324 323 322 323 326 323 324 325 325 324 324 323 322 324 324 325 327 326 329 330 332 331 330 330 331 331 331 330 331 331 332 332 332 332 332 334 333 332 335 338
324 323 322 319 318 317 318 317 318 323 323 320 317 316 317 318 318 317 322 321 322 323 322 321 323 325 326 327 327 327 326 327 329 327 325 328 325 324 325 325 326 328 326 325 325 327 326 324 324 324 322 320 321 324 325 322 320 318 318 319 321 323 327 325 325 328 329 329 330 330 331 331 330 330 330 331 332 332 331 330 330 331 332 332 332
322 323 321 319 319 318 316 315 320 320 320 318 319 318 317 317 317 316 318 322 322 320 319 320 324 327 326 326 326 325 326 326 330 328 328 326 326 325 325 324 325 326 325 325 325 329 323 323 322 319 321 321 320 323 325 321 317 316 314 316 316 319 321 323 324 327 328 328 328 328 328 330 330 330 330 330 331 333 332 331 331 331 331 331 331
322 322 322 320 320 319 317 317 318 317 319 322 317 319 320 322 318 319 318 319 319 321 319 326 328 324 323 325 326 325 326 326 326 330 328 327 326 325 325 324 325 327 323 323 322 323 322 322 322 320 318 320 321 324 324 321 317 317 316 313 309 313 316 319 322 325 327 327 328 329 330 330 331 330 330 329 329 330 332 332 333 333 334 334 334
322 321 322 321 320 320 316 317 319 317 316 322 325 319 322 323 323 321 321 320 321 326 323 323 323 323 322 324 325 325 326 325 326 327 326 325 325 324 324 324 324 325 322 321 322 322 322 322 322 323 319 317 319 319 326 323 320 315 312 312 311 310 306 311 317 320 325 326 327 328 329 329 329 330 330 329 330 331 332 333 332 332 331 332 332
321 322 321 319 321 317 317 318 318 316 317 324 319 323 323 319 321 321 321 318 318 317 319 319 321 326 323 322 324 325 325 325 325 326 328 324 323 324 324 324 324 324 324 323 321 321 321 321 320 321 319 317 317 317 320 324 323 324 314 312 310 308 309 311 315 316 321 324 325 327 330 329 329 330 330 330 331 331 330 328 328 328 327 328 328
321 322 322 318 318 318 317 317 318 316 316 319 321 321 322 319 318 318 315 313 312 313 314 315 317 318 320 323 324 325 324 324 324 325 326 327 323 323 322 324 323 324 325 322 321 322 322 321 322 320 320 320 318 316 317 321 323 325 322 315 313 310 311 312 311 309 320 322 324 325 325 327 330 329 330 328 327 326 326 324 324 324 324 324 325
321 322 321 318 318 318 317 318 317 317 319 319 321 324 317 317 317 316 315 312 310 311 312 315 318 320 321 322 323 323 323 323 323 323 324 326 323 323 322 322 323 322 326 322 321 321 322 322 325 321 320 322 319 315 316 318 317 322 323 322 323 321 318 314 310 311 312 316 321 323 325 327 327 329 328 328 326 325 324 323 322 322 321 321 321
321 321 320 318 318 317 316 318 318 321 318 319 319 324 317 317 315 316 317 313 312 313 319 319 319 322 320 321 322 321 323 323 323 323 323 325 325 322 322 322 322 324 325 320 320 320 322 323 324 321 322 323 319 318 316 316 315 317 322 320 321 321 320 318 316 312 311 312 316 322 325 324 325 326 328 329 328 325 323 322 321 320 320 319 319
321 321 320 319 317 316 317 317 318 320 318 320 318 319 321 317 315 315 316 317 314 317 321 324 321 321 319 319 321 320 321 321 322 322 321 322 325 322 321 321 321 322 323 322 320 320 320 320 320 321 320 320 323 321 317 316 316 317 317 317 318 317 317 318 318 317 311 311 311 314 317 320 323 324 325 328 328 326 324 322 322 320 319 317 317
321 322 320 318 316 315 317 317 318 316 316 318 318 317 322 320 314 315 312 311 317 318 317 317 318 317 317 318 318 319 319 319 320 320 320 321 321 322 322 321 320 323 324 319 319 319 319 319 318 319 319 319 319 320 319 317 317 318 318 316 314 314 315 315 315 314 314 312 312 311 313 315 315 320 324 326 326 325 324 323 320 318 317 315 315
320 320 319 318 316 316 316 316 316 316 317 317 317 317 317 315 314 313 312 312 313 314 315 316 317 318 318 317 317 317 317 318 317 318 318 319 319 323 321 322 322 323 322 320 319 318 318 317 318 318 319 318 319 318 319 318 318 318 317 316 315 315 314 312 313 313 311 310 311 312 314 316 317 316 319 323 326 325 324 322 319 317 315 314 314
Wind_Speed
3 3 3 9 11 12 12 12 11 10 10 10 12 11 11 11 11 12 14 14 13 14 14 14 13 13 13 14 15 16 16 15 15 15 14 14 14 14 14 15 17 17 16 15 14 13 15 15 15 15 14 14 15 14 14 14 14 14 15 15 16 16 15 16 16 16 15 16 17 16 15 14 14 15 17 16 15 14 13 14 12 8 6 10 14
2 1 2 5 12 12 11 12 11 10 11 12 12 11 10 10 12 14 14 13 13 13 13 13 13 13 13 14 15 15 16 15 15 15 14 13 13 14 14 15 17 17 16 16 15 14 14 14 14 13 14 15 14 14 13 13 14 14 14 16 16 16 16 15 15 15 14 14 14 15 14 14 14 15 16 16 16 15 13 14 15 7 4 12 13
1 4 4 6 12 11 11 12 11 10 11 11 11 11 11 11 13 14 13 13 14 11 11 12 13 13 13 13 14 14 15 15 15 15 14 14 14 15 15 17 17 17 17 17 16 14 13 13 12 12 13 15 14 14 14 13 13 13 15 16 16 14 15 15 14 14 15 15 14 15 15 15 15 15 15 16 15 14 14 13 13 11 8 13 12
4 4 4 8 12 11 11 11 10 11 12 12 11 12 13 14 14 13 12 12 14 12 11 11 11 13 13 13 13 14 14 15 15 14 14 15 15 16 17 17 17 17 17 16 16 15 14 12 12 12 13 14 15 15 13 13 13 14 13 14 14 14 15 14 13 13 13 13 13 10 4 5 8 12 12 13 14 13 12 12 12 12 13 12 13
4 2 4 5 6 10 12 11 11 11 11 12 13 12 11 12 13 13 12 11 12 12 11 10 11 12 13 13 12 13 13 13 14 14 14 13 14 17 16 16 15 15 17 16 16 15 15 13 11 11 13 13 12 13 13 12 12 12 12 11 12 14 15 14 15 13 13 14 13 7 4 4 4 13 13 14 13 13 13 14 14 13 13 12 11
2 2 3 4 5 7 11 12 11 11 12 12 12 12 12 11 11 14 10 10 8 11 11 11 12 13 13 13 13 12 12 12 13 13 12 13 15 16 15 14 16 16 16 16 15 15 14 13 12 11 13 12 12 11 11 11 11 11 11 10 11 13 12 15 15 14 13 12 9 4 4 3 3 6 14 14 14 13 13 14 13 11 11 11 11
2 2 3 4 4 6 12 13 11 11 12 11 11 11 13 14 12 13 11 4 6 10 11 11 12 12 13 14 12 11 11 11 12 12 12 11 15 15 14 15 14 14 14 14 15 14 14 13 11 10 12 11 9 9 9 9 9 9 8 9 10 8 7 4 5 9 9 6 3 3 5 5 3 3 13 13 13 13 13 13 13 11 11 11 11
2 2 4 5 4 8 13 14 11 11 12 11 11 11 11 15 13 11 11 6 6 9 10 11 12 12 13 13 12 11 9 10 12 10 9 14 14 13 13 13 13 13 14 13 14 13 13 12 11 10 10 9 8 9 8 8 8 7 7 6 6 5 3 3 4 2 6 4 2 3 4 4 4 3 12 13 13 13 13 13 12 11 11 10 10
4 4 4 5 5 12 14 13 12 12 12 11 11 11 13 14 14 13 9 7 6 9 10 11 12 12 12 12 12 11 10 10 11 10 10 13 14 12 12 13 13 13 13 12 12 12 12 11 10 9 9 8 8 8 7 7 7 7 7 6 6 5 5 3 3 3 5 4 3 3 4 4 3 3 10 13 12 12 12 9 9 11 11 10 10
3 4 4 5 5 12 13 12 11 12 11 11 11 12 13 11 12 11 12 10 8 9 11 12 12 12 12 12 11 12 11 10 10 10 11 11 12 13 12 12 12 12 11 11 11 10 10 9 9 9 8 8 7 7 6 7 7 7 6 7 7 6 6 6 5 5 5 5 3 4 4 6 3 2 7 11 12 12 11 11 8 7 6 9 10
5 4 3 6 7 12 13 12 12 12 11 11 11 12 13 14 13 13 12 9 10 11 11 12 12 12 12 12 11 12 11 11 10 10 10 9 11 13 11 10 11 10 10 10 9 9 8 7 8 8 7 7 6 6 5 6 6 7 7 7 7 7 8 8 4 4 7 6 4 4 7 10 3 2 9 12 12 12 11 9 8 8 8 8 12
5 3 3 4 11 13 12 12 12 12 11 11 11 12 11 12 12 13 11 10 9 10 11 11 12 12 11 11 11 11 11 11 11 9 9 9 10 11 11 11 11 10 8 8 7 6 6 6 6 6 7 6 5 5 5 5 6 6 7 7 8 9 9 9 2 5 7 6 5 3 4 4 4 6 13 14 12 11 9 9 8 9 9 9 8
6 5 5 4 5 12 12 11 11 12 11 11 11 12 12 11 11 12 12 9 7 9 11 11 12 11 11 10 10 10 10 10 9 9 8 9 10 10 10 10 9 8 7 7 7 7 6 5 5 5 5 5 5 4 4 5 5 5 6 8 8 8 8 8 4 7 8 5 4 5 5 4 3 11 12 13 12 10 9 8 9 9 8 9 8
6 5 4 3 4 12 13 11 11 11 12 10 9 10 12 12 11 12 11 9 8 9 10 10 11 11 10 10 10 10 9 9 8 8 8 8 9 9 9 8 7 7 7 7 7 7 6 5 5 5 4 4 4 3 4 4 5 5 6 7 6 7 9 7 7 5 6 5 4 5 4 3 3 12 12 11 11 10 8 8 9 9 9 8 8
6 6 6 5 5 5 13 12 11 11 10 10 9 9 11 12 12 11 11 10 8 8 8 9 9 10 9 9 9 9 9 8 7 7 7 7 7 8 8 7 6 6 6 7 7 7 6 6 5 4 4 4 3 3 3 4 5 5 6 6 6 8 10 5 4 4 6 5 3 4 4 3 8 12 11 11 11 10 8 7 7 8 8 8 7
6 6 6 5 5 5 5 10 12 12 10 9 9 10 10 10 11 11 10 9 7 7 7 7 9 9 9 9 9 9 9 7 7 6 6 6 6 7 6 5 5 5 6 6 6 6 6 6 6 5 4 3 2 4 3 4 4 5 6 5 4 7 9 5 3 3 4 5 4 4 4 4 13 11 11 12 12 10 9 8 8 8 8 6 6
6 6 6 6 5 6 5 5 9 13 11 9 9 9 10 11 11 10 9 8 8 6 6 6 8 9 9 9 9 9 9 7 6 5 4 5 5 5 5 5 4 4 5 5 5 5 6 5 5 4 3 2 2 3 3 4 4 5 6 5 5 7 9 6 2 4 5 5 5 5 5 5 12 12 12 12 12 11 8 8 7 12 8 7 8
6 6 6 6 6 7 6 6 6 4 3 7 8 8 9 11 10 9 8 8 7 6 6 6 7 9 9 9 8 8 8 7 6 5 4 3 2 3 3 3 3 3 4 4 4 4 4 5 4 3 2 2 3 3 4 5 6 7 7 8 7 8 9 5 3 5 4 4 3 3 4 7 14 13 13 13 12 10 9 9 6 3 7 8 7
6 6 5 5 5 6 6 5 4 3 2 1 1 4 10 9 8 9 9 7 6 6 6 5 7 8 8 8 8 8 7 6 5 4 3 2 1 2 1 1 1 1 1 2 2 3 3 3 3 2 1 1 2 3 4 5 6 7 9 9 10 8 8 3 3 6 4 3 4 3 4 12 14 14 13 13 12 10 10 10 7 6 5 6 6
5 5 5 6 5 5 4 4 3 2 1 2 3 2 6 9 8 9 9 8 7 6 6 5 6 7 8 8 8 6 6 5 5 2 1 2 1 0 1 1 2 2 2 2 1 1 1 2 2 0 0 1 2 3 4 5 6 7 7 7 7 6 4 0 2 3 5 5 4 4 7 13 14 14 14 13 12 11 10 9 8 8 7 6 6
4 5 4 4 5 5 4 3 3 2 2 2 3 3 5 7 5 8 8 7 6 6 5 4 5 6 5 6 5 4 3 3 3 2 1 1 2 2 2 2 2 3 3 4 4 4 3 2 1 1 2 3 3 3 4 5 6 6 6 6 6 2 2 3 2 3 5 6 6 6 11 14 14 14 14 12 12 11 10 9 9 8 8 8 5
4 4 4 3 4 3 3 3 3 2 2 3 3 3 3 4 3 2 2 3 4 4 1 1 3 1 3 2 2 3 3 3 2 3 3 2 4 4 3 3 3 4 4 5 5 6 6 5 4 4 4 4 5 3 3 4 6 6 7 7 4 2 3 3 3 2 5 5 6 7 14 13 13 13 12 11 11 11 10 9 8 8 5 7 7
4 2 3 3 1 1 1 3 3 3 3 2 2 2 1 1 1 1 1 2 3 2 0 2 0 0 0 1 2 2 3 3 1 2 2 5 3 5 5 5 5 5 5 5 6 6 6 6 7 6 6 6 4 3 4 4 5 8 6 3 3 0 1 2 0 5 5 5 5 10 13 13 12 12 11 11 11 11 10 8 8 7 8 7 7
2 2 3 2 1 1 2 2 3 2 2 1 1 1 1 1 2 1 1 1 0 1 1 1 0 1 0 0 0 2 2 2 3 5 5 3 3 5 7 7 6 6 7 5 5 5 6 5 6 8 5 4 4 3 3 4 5 5 5 5 3 2 2 0 1 4 4 5 5 12 13 13 12 12 11 11 10 12 10 9 8 7 8 8 8
2 1 2 2 2 2 2 1 2 2 2 3 3 2 2 1 1 0 0 0 0 1 1 1 1 1 1 0 0 1 2 2 1 2 2 2 3 3 4 3 1 2 5 3 3 3 3 2 3 4 4 4 5 4 3 5 4 5 5 5 4 3 1 1 2 4 5 5 6 12 13 11 11 12 12 11 11 11 8 9 9 10 9 9 9
2 2 0 1 1 1 2 2 2 2 2 3 3 3 3 1 1 1 0 0 0 1 1 2 1 1 0 0 0 1 2 2 3 2 2 2 3 4 4 3 2 3 3 4 4 4 3 3 3 3 4 4 4 4 3 3 5 5 5 4 5 3 1 3 4 5 5 5 5 13 12 12 11 12 12 12 12 11 10 9 9 10 9 10 9
1 1 1 2 1 1 1 1 3 2 2 1 1 0 1 0 1 1 1 0 0 1 0 1 1 1 1 1 2 3 3 3 3 3 2 2 3 4 4 4 3 4 4 4 5 4 4 4 4 4 4 4 4 4 4 3 3 4 4 4 4 5 3 3 4 5 5 5 5 12 12 12 12 11 12 12 12 12 12 12 12 10 10 10 10
1 1 2 2 2 3 2 2 2 1 0 1 0 1 0 0 2 0 1 2 1 0 1 1 2 0 0 1 1 1 0 1 0 1 2 2 2 3 4 4 4 4 4 4 5 5 5 4 3 4 4 3 3 4 4 4 4 3 3 4 4 5 5 3 3 4 5 5 4 9 12 12 12 10 12 12 12 13 13 13 12 11 11 11 10
2 3 1 2 4 1 3 2 2 3 3 4 3 3 3 2 2 2 1 2 1 2 2 2 2 1 0 0 0 1 1 1 3 2 2 2 3 3 4 4 4 5 3 4 5 5 5 4 4 5 4 4 3 5 4 5 5 4 4 4 4 4 4 2 3 3 4 5 5 6 12 12 12 12 12 13 13 13 13 13 13 12 12 11 11
4 3 2 3 2 3 3 2 3 4 3 3 2 2 2 3 2 3 3 2 1 2 2 1 1 2 4 1 0 1 2 2 3 3 4 5 5 4 3 4 4 5 4 5 5 5 5 4 5 5 5 5 3 5 5 6 5 4 3 4 5 5 5 3 4 4 4 5 4 4 11 12 12 11 12 13 13 13 13 13 13 14 13 13 12
2 4 2 2 2 2 3 3 3 3 3 2 2 2 2 4 4 4 4 3 3 3 4 4 3 2 1 2 2 0 1 2 3 4 3 4 5 5 6 3 4 4 4 6 4 5 4 5 5 5 5 5 5 4 4 5 5 4 3 4 5 3 3 3 2 2 3 4 4 4 5 12 12 11 11 11 13 13 13 13 14 14 14 13 12
3 4 1 2 2 2 3 3 2 3 2 2 2 2 2 2 2 2 3 4 3 2 3 3 4 5 4 3 0 0 0 2 2 3 3 3 3 4 4 3 3 4 5 5 5 4 4 4 4 4 5 5 6 4 2 2 5 5 3 4 4 5 5 3 3 3 3 3 4 4 5 5 10 11 11 12 11 13 13 14 14 14 14 14 14
5 2 1 2 1 2 2 2 1 1 2 2 2 2 2 2 2 2 3 3 3 3 3 3 2 2 1 1 2 2 2 2 2 2 1 1 2 3 5 4 3 5 2 3 3 2 2 3 4 5 5 5 5 4 2 3 4 5 3 5 4 5 5 4 3 3 3 3 4 4 4 4 4 9 13 13 13 13 13 14 13 13 14 14 14
3 1 1 2 2 1 1 1 1 1 1 1 1 2 3 4 2 2 3 3 3 0 0 0 2 3 4 2 2 2 2 0 1 1 1 3 4 4 5 6 5 6 3 0 3 5 4 2 3 1 3 1 0 0 0 4 5 4 5 5 3 4 4 3 4 5 3 4 4 4 4 3 5 5 6 12 13 12 13 13 13 13 13 13 14
3 2 3 4 1 1 1 1 0 0 1 2 2 2 1 2 1 0 0 3 5 6 4 3 5 4 4 4 3 4 4 5 4 5 5 4 5 5 5 5 5 3 2 1 1 1 0 1 1 0 2 2 2 3 1 2 4 5 5 5 4 2 2 3 4 4 5 3 2 4 5 4 5 5 5 5 7 11 10 10 7 11 11 11 13
4 3 3 1 1 0 1 1 0 1 1 1 1 2 2 2 2 3 5 4 6 5 5 5 5 5 5 5 4 4 3 3 3 2 3 3 3 4 4 5 4 4 5 5 3 4 2 4 2 1 3 3 4 4 2 2 3 2 3 2 3 2 2 2 4 5 2 2 4 3 4 5 5 6 3 3 7 5 6 8 9 10 11 14 15
4 3 2 1 1 2 0 0 1 1 1 2 2 2 3 4 2 3 4 4 6 5 4 5 5 3 3 2 2 2 2 3 3 3 1 2 3 3 4 3 3 3 3 3 4 3 3 3 4 3 2 2 3 3 4 3 2 2 3 5 5 3 3 4 4 4 3 5 4 4 3 5 2 4 5 1 3 2 2 1 7 11 14 16 15
5 4 4 4 4 3 1 1 2 2 1 1 2 3 4 4 4 4 3 5 4 3 4 4 4 3 2 1 2 4 4 4 4 3 1 2 1 2 2 3 2 3 3 3 3 2 3 3 4 3 3 3 5 4 4 3 2 2 2 3 5 4 4 4 4 4 4 5 4 2 3 7 6 3 2 2 2 3 3 4 7 10 13 15 16
4 5 4 3 2 2 1 1 1 1 1 1 2 3 3 3 2 3 3 4 4 3 3 4 3 3 4 4 4 4 4 4 4 4 4 3 3 3 3 3 2 3 3 3 3 3 3 3 3 4 4 3 3 3 2 3 2 0 0 1 2 4 5 5 3 4 4 4 7 5 4 4 4 3 3 2 2 2 3 5 5 5 7 15 15
5 5 4 4 4 2 1 0 1 1 1 1 2 3 2 3 2 4 4 3 3 3 2 2 2 4 3 4 3 3 3 3 3 3 4 3 3 3 3 3 3 3 4 5 4 4 3 4 4 2 3 4 3 3 3 3 1 2 3 3 0 1 3 3 4 3 3 4 4 3 3 1 4 3 1 2 2 0 0 2 4 3 3 6 11
5 5 4 4 4 3 2 2 2 1 0 0 0 0 1 0 1 1 0 1 2 1 2 2 4 4 3 3 3 3 3 3 3 3 4 3 3 3 4 4 3 3 4 4 4 4 3 2 2 1 2 4 3 4 5 2 3 3 3 3 4 2 4 5 9 8 7 6 5 4 2 4 3 2 1 1 1 1 0 1 4 5 5 5 6
4 5 5 5 4 2 3 3 1 1 1 2 2 1 1 2 2 1 1 1 2 2 0 2 3 3 3 3 3 3 4 3 3 3 3 3 4 4 3 4 4 4 3 3 4 4 5 5 3 2 2 1 1 2 5 2 2 1 1 4 4 4 2 5 10 10 7 5 4 5 5 5 4 3 3 4 5 6 6 5 4 5 4 5 5
5 5 4 4 4 4 4 3 3 3 2 2 2 1 0 1 1 1 2 1 1 0 1 2 2 3 3 3 3 4 4 3 3 3 3 4 4 4 3 4 4 3 5 5 4 5 4 4 4 2 2 2 1 1 4 2 1 0 0 1 2 2 4 6 6 9 7 5 5 7 6 6 6 5 4 5 6 6 6 5 6 6 6 6 7
4 4 4 6 5 5 4 3 3 2 3 1 1 0 0 1 2 2 1 1 3 2 4 3 3 3 3 3 3 3 3 3 3 4 3 4 4 3 3 4 4 3 3 4 4 4 4 3 3 2 2 2 2 2 4 4 0 2 0 0 2 3 0 3 5 5 5 6 7 7 6 6 6 6 6 6 6 5 6 7 8 7 7 8 7
5 5 5 5 5 6 5 4 4 3 2 1 1 0 1 2 3 3 2 3 4 5 4 3 2 0 1 3 3 3 3 4 4 4 4 3 3 4 4 3 4 4 3 4 3 3 2 2 1 2 2 3 1 1 3 3 4 1 3 2 1 2 2 2 4 4 3 5 6 6 7 6 6 5 6 6 6 6 7 8 8 8 8 8 7
6 6 6 5 4 4 3 3 3 3 2 1 1 2 2 1 2 1 1 2 1 2 2 3 1 2 2 1 4 5 4 4 4 4 4 4 4 4 3 4 4 5 4 3 3 3 4 3 3 1 2 1 3 2 1 2 2 4 2 1 3 4 4 2 4 3 4 6 4 6 5 3 3 6 6 7 8 7 6 6 7 7 8 8 7
6 4 4 5 4 4 4 4 4 3 2 1 3 3 1 1 1 2 3 3 3 1 1 2 3 1 1 3 4 4 4 5 4 4 4 4 4 4 4 3 3 3 3 4 4 3 3 3 3 3 3 1 1 2 1 1 2 4 4 4 3 2 1 3 2 5 5 2 3 3 5 6 5 5 7 7 7 6 5 5 7 7 7 6 6
6 4 4 4 4 4 4 4 3 3 2 1 1 1 2 3 1 2 3 3 3 2 3 2 1 1 3 3 5 4 4 4 4 4 4 4 3 3 3 4 3 3 3 3 3 3 3 4 3 3 3 4 3 3 1 2 3 0 2 3 3 3 3 3 2 4 6 6 4 5 6 5 5 6 5 6 7 6 6 6 6 7 7 7 6
5 6 5 5 4 4 4 3 3 2 2 1 1 0 2 2 2 3 2 1 2 4 3 0 1 1 3 3 4 3 3 4 3 3 3 4 3 3 3 3 3 3 2 4 3 3 3 3 4 5 4 4 3 1 2 3 2 0 1 3 3 4 4 3 3 3 3 5 3 4 5 2 5 5 4 6 6 5 5 5 6 6 6 7 7
5 5 4 4 4 4 4 3 3 3 3 2 2 1 1 3 2 1 3 1 1 1 1 2 1 2 4 4 3 4 3 4 4 3 4 3 3 3 3 3 3 2 2 3 3 3 3 3 3 3 3 4 3 3 2 2 2 2 1 0 2 2 3 4 3 3 5 3 6 4 4 5 5 3 4 6 7 5 5 5 6 6 6 6 6
4 5 6 6 5 5 4 4 3 3 3 3 2 1 1 2 3 2 2 2 2 2 3 3 3 4 5 3 3 3 3 3 4 3 3 3 3 2 2 2 2 2 3 3 3 3 3 3 3 4 4 4 4 4 4 3 3 3 3 3 2 2 2 2 1 1 2 3 5 5 4 3 6 7 5 4 6 5 4 4 6 5 6 6 6
Wind_Direction
226 246 60 95 94 91 93 93 91 92 91 90 94 90 98 101 101 106 104 102 104 103 101 102 101 101 100 102 100 101 100 99 98 99 99 102 103 102 103 104 104 101 100 102 101 98 99 102 99 101 101 98 95 95 94 96 95 104 110 109 108 105 101 100 97 97 98 100 104 105 101 108 110 98 94 95 94 94 96 98 92 90 79 98 98
153 296 81 99 95 95 99 100 100 104 103 99 103 104 100 100 102 106 106 109 105 103 109 109 108 105 105 105 105 104 103 101 100 101 102 104 106 107 105 103 102 101 97 93 96 95 98 101 102 102 100 99 97 96 96 96 97 103 104 106 104 103 105 100 99 96 96 98 96 99 104 104 101 101 103 102 100 100 99 96 95 94 99 98 98
88 78 105 100 97 96 98 100 106 109 109 101 105 111 113 107 110 111 113 115 108 104 105 108 111 110 109 108 109 109 108 109 108 109 110 110 108 106 104 102 101 102 102 99 98 98 94 95 100 103 100 101 99 103 100 92 98 104 106 109 112 110 99 99 100 99 102 100 98 97 96 95 96 102 102 103 107 106 104 104 103 100 103 102 101
112 108 120 108 100 100 98 99 98 104 108 103 105 118 118 117 117 112 116 113 108 108 104 103 104 107 107 108 108 109 110 112 112 111 113 115 114 111 108 107 105 106 105 103 103 102 103 105 105 103 106 103 101 103 101 98 91 97 98 101 105 102 105 105 102 100 97 90 83 75 63 74 88 99 104 106 106 109 112 112 113 109 106 106 107
93 71 87 90 95 106 108 108 109 106 106 109 109 107 114 113 112 112 106 101 101 105 103 103 103 99 99 100 102 108 113 114 110 107 105 108 109 107 109 112 112 105 101 99 100 101 104 107 109 110 112 105 103 104 107 106 104 103 101 101 108 111 113 108 106 104 100 96 94 83 79 85 93 103 105 107 107 104 107 107 101 100 102 105 105
90 82 91 96 100 108 115 111 107 107 109 107 107 114 111 103 96 87 68 63 84 101 103 104 102 100 98 97 98 99 104 106 108 112 116 116 114 112 116 110 94 98 98 99 100 101 102 103 108 111 114 110 101 98 99 103 101 104 104 96 106 119 121 110 103 105 107 103 94 90 94 85 91 105 109 111 112 113 110 104 106 108 108 108 111
120 109 107 97 100 107 109 106 102 110 109 107 112 111 109 96 88 83 77 79 108 98 103 103 101 99 98 96 96 100 108 114 116 113 116 113 96 103 105 100 102 104 105 104 102 100 100 103 103 108 109 104 99 90 88 87 91 93 93 101 110 117 128 127 84 108 98 98 93 103 101 101 107 112 111 108 108 111 111 111 108 107 106 103 102
129 106 105 105 107 114 111 109 109 110 110 110 114 113 107 107 113 108 115 164 104 90 98 99 97 95 94 95 97 100 100 107 106 114 119 103 102 107 112 110 107 104 104 103 101 102 102 103 104 106 110 103 93 88 85 86 86 88 83 77 74 71 71 31 36 30 106 124 126 120 111 109 103 108 117 115 117 117 117 113 110 109 110 112 108
114 105 107 107 115 119 113 109 110 110 112 116 119 118 113 113 119 116 118 107 87 89 89 89 91 93 94 96 99 102 100 99 106 110 104 100 103 100 100 101 99 101 101 102 102 102 103 105 104 101 99 91 88 86 85 84 85 83 72 69 55 56 33 3 353 55 117 137 146 132 119 113 115 119 123 125 123 121 114 108 108 109 106 108 111
98 98 102 100 114 116 114 110 110 108 113 116 120 117 106 102 98 109 129 132 113 102 95 88 85 87 91 95 98 103 107 106 113 113 103 94 98 101 101 107 107 105 104 106 108 109 105 105 106 101 97 94 88 86 86 83 81 76 68 56 46 34 13 358 357 59 118 136 152 136 135 133 143 161 131 124 119 112 113 105 102 109 118 122 127
96 97 101 112 117 113 111 109 108 108 112 114 118 110 105 106 121 136 134 128 111 104 96 92 89 88 89 92 98 104 109 113 111 109 105 107 106 110 113 103 100 98 101 101 99 99 103 106 106 106 99 97 93 89 83 77 76 67 56 49 38 19 359 349 4 115 134 148 154 167 141 128 124 127 133 129 125 125 124 122 125 131 131 133 127
94 86 79 103 111 110 106 109 110 111 112 114 118 109 100 102 107 115 103 94 94 95 93 92 90 88 89 94 98 100 105 109 109 106 107 104 102 94 89 88 79 81 82 86 91 101 108 110 109 108 110 104 99 89 78 66 60 53 48 43 30 15 7 2 23 126 140 153 165 146 118 129 149 146 133 133 135 134 133 133 127 130 134 129 123
88 87 79 73 99 109 109 112 112 112 115 121 120 113 105 101 100 100 101 92 70 80 88 87 85 85 88 94 99 101 105 106 108 107 103 101 98 98 92 90 86 87 87 90 97 102 105 108 112 111 109 106 94 83 69 54 44 43 40 41 34 23 24 42 90 119 140 146 139 130 136 137 147 139 139 139 140 142 144 142 132 132 134 132 124
93 90 84 90 105 114 110 106 105 97 101 99 105 107 108 104 101 103 104 96 71 54 87 87 88 85 86 92 98 100 102 103 102 105 106 109 110 108 104 99 94 93 93 93 94 94 97 98 97 98 97 92 82 77 56 40 32 22 30 42 40 37 42 46 70 94 116 130 136 142 141 146 151 143 143 147 144 148 150 141 137 143 143 139 132
94 85 89 82 80 100 109 105 98 91 97 100 97 107 107 105 108 109 109 104 85 75 73 98 96 93 90 89 92 97 98 99 97 97 103 108 113 117 113 106 103 97 95 93 95 98 97 91 82 74 77 66 60 36 36 29 17 5 11 32 44 47 53 52 65 101 119 131 138 144 151 157 157 150 146 147 145 141 147 146 145 147 144 143 138
90 86 82 73 82 86 77 98 97 95 101 111 116 114 100 100 104 111 113 102 91 87 84 94 110 110 106 101 98 97 100 103 107 107 109 108 112 112 117 118 107 100 89 88 87 91 92 87 82 68 52 54 47 27 11 18 3 353 354 6 36 59 65 84 70 113 121 135 148 156 161 164 158 154 150 149 148 143 147 152 153 146 137 136 152
96 92 83 73 75 78 72 79 108 111 111 117 121 116 102 100 106 112 117 116 111 98 90 93 114 112 110 108 103 99 100 102 103 105 107 119 121 127 127 129 121 110 102 92 90 89 91 87 88 86 61 32 51 9 3 357 348 342 335 342 15 45 47 89 105 132 148 154 160 165 166 167 161 159 156 158 156 157 154 150 153 147 149 154 168
81 85 86 79 70 72 78 70 66 68 90 119 123 109 101 104 106 108 113 118 121 116 107 104 116 120 117 113 106 98 90 86 88 82 84 93 107 126 135 137 140 131 124 110 102 96 92 101 92 91 85 33 1 359 349 338 343 334 333 341 353 29 49 56 110 148 158 158 144 187 178 171 163 163 164 164 167 160 155 146 158 167 155 165 177
78 82 87 86 73 75 72 69 66 60 55 40 24 96 101 105 107 107 109 122 131 131 126 116 110 93 89 96 101 104 98 89 75 73 74 74 62 49 102 149 154 143 125 120 107 114 102 102 102 99 92 2 347 340 334 331 330 332 333 337 344 2 66 46 88 151 163 157 155 208 208 175 167 167 168 171 170 159 156 157 170 182 164 179 154
73 69 73 71 76 88 95 99 92 85 69 29 30 31 102 111 111 107 117 129 130 126 120 115 101 98 94 86 73 59 61 50 57 42 47 22 25 58 320 317 322 312 326 318 306 350 144 94 121 151 269 260 302 315 318 317 320 318 321 322 321 353 85 55 66 167 164 158 165 196 212 181 173 172 173 174 168 167 166 179 172 177 179 189 205
65 63 67 73 84 94 99 90 93 95 61 36 34 41 62 58 85 122 126 125 130 133 119 95 92 102 103 103 79 82 60 54 13 341 272 277 285 297 297 308 307 311 299 302 303 301 305 295 308 256 269 286 275 282 286 297 303 301 298 304 321 30 127 168 182 197 162 166 173 192 205 183 181 179 178 176 171 170 175 171 189 186 179 188 201
78 75 54 60 86 103 127 101 87 81 61 50 55 44 18 65 53 17 33 76 97 109 80 125 102 45 105 100 77 76 78 68 38 349 346 313 309 281 279 292 298 297 301 297 298 301 306 310 300 293 285 285 292 308 309 302 303 304 304 310 342 9 31 341 326 150 153 167 178 197 200 187 185 184 182 182 178 175 184 187 194 179 200 197 199
82 77 63 74 90 109 60 76 78 84 75 65 96 114 114 144 109 194 168 134 145 120 350 103 14 289 25 21 71 86 89 74 1 305 305 295 277 270 272 273 280 290 292 290 296 299 304 308 304 301 293 288 294 299 300 308 311 313 318 310 294 214 96 301 41 158 159 183 176 198 194 187 186 186 187 188 188 181 187 199 195 200 194 201 210
80 113 122 124 157 133 110 104 103 78 95 119 130 198 206 182 190 175 113 137 58 81 62 62 17 295 350 87 57 89 87 66 26 346 341 349 340 309 280 259 263 272 276 284 302 311 307 315 312 304 305 307 300 288 285 291 286 292 293 284 274 283 120 239 175 164 164 190 186 197 188 190 189 189 189 192 190 191 198 199 199 209 207 202 211
130 129 106 138 182 170 121 94 102 127 147 170 168 206 225 241 248 218 186 279 49 36 16 2 292 274 271 214 239 96 96 84 44 4 349 332 328 304 292 303 297 301 278 282 275 274 296 304 306 301 292 290 291 291 303 297 292 282 278 278 279 290 104 184 193 176 185 202 185 193 187 190 192 190 190 193 196 201 212 196 202 205 213 220 220
128 82 125 160 194 113 132 137 146 166 177 182 183 197 166 294 285 238 256 325 13 59 18 330 319 329 317 255 66 41 53 62 40 12 342 341 305 294 282 270 263 250 261 270 272 266 266 259 264 271 272 267 268 278 274 262 270 267 264 271 274 264 169 187 199 191 196 198 195 189 186 189 192 195 199 196 199 204 209 216 213 215 216 219 222
135 170 217 215 188 196 157 149 169 171 183 227 244 91 77 317 335 295 103 338 63 50 29 318 337 17 8 318 25 4 30 41 32 5 342 305 275 279 282 264 246 240 243 247 258 259 260 258 254 263 266 260 265 264 263 261 256 260 247 254 266 270 261 175 205 189 192 193 197 190 189 191 193 198 203 204 204 203 210 214 219 216 215 225 226
153 229 240 231 237 204 142 138 205 171 264 319 11 65 75 286 253 310 43 238 125 140 171 257 281 215 188 266 149 165 103 105 107 49 297 285 271 267 268 272 256 249 233 226 245 254 255 253 256 260 268 265 253 253 252 271 273 264 280 267 260 266 266 269 189 186 187 189 191 199 193 194 196 200 206 211 211 208 212 215 219 222 218 218 229
199 241 240 271 250 28 25 10 338 11 21 360 9 4 349 338 332 322 267 270 158 224 194 176 192 257 143 191 250 110 32 40 41 30 341 288 269 253 243 246 246 248 231 237 227 237 245 252 262 264 259 257 253 254 242 250 246 241 237 261 258 255 264 190 191 181 183 192 190 200 197 198 200 203 206 211 215 219 219 216 221 221 226 223 225
233 251 250 256 25 17 4 343 9 13 20 25 16 13 331 325 316 304 297 325 346 311 300 270 225 174 176 132 15 79 37 43 359 3 5 340 330 312 282 246 233 243 228 237 233 242 249 250 256 259 260 254 230 243 242 253 257 252 236 242 244 243 239 201 188 185 185 189 191 200 202 201 206 206 209 213 216 220 223 226 224 224 225 225 226
286 256 270 337 33 19 335 342 9 349 16 12 348 340 330 326 319 317 320 323 336 333 317 308 308 269 231 113 102 173 116 48 3 343 349 338 325 332 317 284 259 255 242 240 227 229 241 246 258 268 275 281 266 249 241 246 251 261 255 253 257 238 234 231 195 182 192 192 184 194 210 209 209 208 213 219 222 222 226 230 230 230 231 232 233
259 255 315 349 18 351 322 339 7 338 352 345 332 327 309 286 297 308 302 295 298 278 291 291 299 352 350 334 68 214 80 353 1 330 336 316 328 309 320 328 270 250 219 234 232 225 230 252 264 269 269 271 276 291 3 306 287 275 271 252 246 226 239 239 242 198 197 197 190 195 204 215 213 210 216 220 226 228 230 232 235 237 236 237 236
264 291 335 351 321 303 313 317 335 302 295 295 296 279 293 297 290 301 294 273 261 254 273 323 345 313 347 32 12 8 4 354 338 315 306 317 332 335 352 348 327 316 230 226 248 242 242 245 262 258 262 249 254 263 278 292 278 280 291 271 240 232 227 220 238 237 211 204 200 200 198 210 217 216 216 219 222 226 231 234 237 240 242 242 242
277 319 326 278 257 243 253 284 270 275 270 289 345 339 317 313 304 256 271 291 308 199 6 220 88 82 73 48 36 40 53 165 130 95 66 34 16 356 351 348 350 351 8 112 229 229 221 217 239 275 300 314 36 183 222 292 286 299 291 289 275 247 232 219 230 235 235 222 204 198 202 198 213 220 222 221 222 224 228 233 236 239 246 249 252
238 225 214 233 217 181 147 66 94 357 25 27 25 356 349 357 350 197 358 37 46 61 59 74 77 74 78 65 53 39 21 17 20 22 6 19 15 354 353 342 335 352 4 2 286 273 214 237 232 268 286 353 33 124 162 271 288 285 276 282 275 274 297 266 260 257 239 243 209 213 200 199 204 216 227 225 231 232 237 249 269 290 299 304 300
192 203 198 167 158 274 78 125 338 320 314 330 323 324 349 314 321 47 45 57 71 74 67 58 62 53 53 47 40 38 30 3 5 19 12 352 8 350 342 337 347 359 14 12 12 23 26 58 72 105 45 10 15 7 110 175 232 283 306 301 285 292 266 257 256 263 288 288 261 246 220 213 205 210 235 17 21 7 310 265 250 257 258 253 249
173 178 183 182 210 264 190 158 246 265 287 306 324 336 356 355 347 41 68 72 85 84 71 66 59 56 52 50 19 31 17 355 349 343 332 333 349 16 336 339 343 19 25 25 34 358 25 34 16 30 90 54 21 3 357 23 346 332 344 350 338 315 269 251 251 248 228 218 227 249 244 228 240 27 49 150 159 169 90 71 242 239 237 243 251
173 174 181 181 205 226 228 238 271 279 271 277 329 336 339 341 356 350 76 84 85 97 99 101 99 119 113 62 32 24 19 7 358 338 339 287 43 21 342 341 351 20 27 29 8 0 33 42 13 349 25 38 21 19 355 356 19 339 339 316 298 293 301 279 262 251 254 252 227 256 328 21 52 80 103 105 133 148 164 178 208 214 212 224 232
174 178 186 191 180 198 210 214 171 267 288 338 352 349 347 347 12 17 47 72 71 66 72 72 65 62 49 37 38 24 8 20 8 5 39 25 9 357 358 346 356 20 30 27 14 5 19 24 38 345 354 13 45 36 347 313 325 53 201 237 265 312 315 309 295 261 270 357 29 51 85 79 69 112 128 146 167 153 168 193 202 210 213 215 227
168 174 170 158 159 159 123 118 239 259 332 343 4 353 2 358 0 352 22 29 28 79 29 80 72 59 49 42 42 40 21 29 22 20 43 47 27 355 359 357 1 18 13 11 357 1 3 10 8 10 357 354 24 19 13 360 356 40 343 334 93 330 353 334 328 307 50 72 63 46 33 95 107 66 39 202 191 256 247 219 223 245 266 246 242
151 156 149 152 163 168 141 206 250 291 182 227 32 51 100 39 24 51 188 270 162 101 40 24 50 38 44 47 38 30 27 24 28 29 31 27 27 7 23 12 7 28 31 18 1 0 352 342 339 16 44 27 360 354 358 59 58 349 343 344 351 8 59 40 41 38 59 69 87 69 54 59 50 88 111 200 146 162 21 22 352 356 343 340 345
156 138 152 169 178 169 171 214 278 75 150 141 144 147 174 169 156 187 138 192 103 98 24 13 59 44 31 36 35 16 26 20 11 21 28 38 25 18 20 15 15 22 49 39 38 28 21 21 15 21 2 63 15 345 335 38 12 87 333 320 351 336 55 61 44 43 66 61 60 62 30 54 46 38 6 13 21 24 27 36 32 12 355 359 353
170 159 168 161 169 184 205 200 205 140 158 156 139 124 164 134 121 190 154 88 332 143 166 132 81 58 19 358 11 27 33 26 25 20 25 21 32 39 20 12 24 19 34 29 27 33 24 31 35 64 4 355 359 325 12 21 219 151 125 74 345 29 332 23 30 46 60 62 56 62 46 38 48 41 34 33 25 23 28 34 42 35 32 27 20
170 172 164 170 172 188 197 188 181 168 153 166 157 202 162 84 49 63 46 129 109 85 68 49 69 57 19 334 13 28 29 36 34 38 34 30 37 43 32 30 27 32 53 53 32 27 19 26 38 49 121 41 356 329 3 2 324 118 358 137 197 128 39 355 50 14 35 57 57 57 55 39 35 41 48 48 34 33 27 33 37 30 28 28 27
186 181 180 182 171 186 195 174 170 178 163 102 78 218 38 12 20 3 26 38 42 33 53 24 13 47 22 18 13 30 42 39 26 34 38 34 31 33 36 32 37 26 41 50 41 19 5 10 19 65 68 141 46 322 339 5 12 346 152 91 23 31 191 212 111 37 341 52 40 52 60 56 45 39 51 57 48 40 37 36 31 30 27 26 25
192 193 183 181 168 189 194 163 160 150 144 108 111 55 16 27 357 55 22 46 58 76 120 155 158 124 131 283 35 36 46 45 27 27 28 33 29 24 31 33 26 19 27 34 33 22 18 17 356 31 59 11 148 92 37 340 19 11 36 157 171 176 182 220 111 98 25 39 45 49 48 21 61 68 66 64 59 51 43 45 37 31 25 25 21
206 186 173 175 176 177 193 161 157 164 170 152 79 78 53 26 247 182 168 169 165 254 249 241 167 158 147 72 55 45 45 55 33 28 28 29 38 28 31 29 23 17 20 35 30 14 0 5 360 18 4 358 84 106 139 247 344 20 8 2 34 36 131 121 138 120 101 6 47 83 72 66 54 71 81 87 82 67 52 49 46 41 35 26 19
193 173 178 168 171 184 187 161 155 160 181 174 79 96 145 134 118 138 172 172 170 186 192 200 226 131 100 88 72 50 45 50 48 30 23 27 39 31 25 24 28 18 37 34 29 7 18 12 23 17 16 30 28 87 54 346 126 226 357 42 59 47 34 62 96 153 141 137 104 67 62 59 60 49 64 82 84 74 64 50 51 45 39 29 21
183 180 186 178 174 187 190 153 165 164 189 161 84 124 170 142 152 144 130 224 189 205 192 137 147 99 97 56 74 62 53 44 45 31 15 28 38 46 35 31 29 19 30 26 24 31 41 42 27 27 26 24 19 23 69 21 24 108 100 59 59 49 40 41 39 71 124 125 129 131 113 77 68 51 52 74 79 77 71 64 59 59 49 38 30
195 182 174 155 171 186 190 158 183 180 179 136 115 114 115 120 99 122 141 79 85 117 47 44 48 52 64 68 68 52 31 35 18 19 6 12 31 42 53 39 21 12 25 12 18 25 27 41 38 36 33 48 23 36 53 25 44 16 26 148 95 41 40 29 28 54 64 80 143 153 145 129 96 33 55 87 95 86 76 65 65 58 55 49 36
189 179 174 173 173 179 185 168 204 195 192 152 135 217 118 138 126 135 156 134 101 121 100 85 93 80 89 78 84 71 33 23 11 4 12 8 33 36 70 50 29 16 16 12 7 21 12 30 29 41 39 43 33 36 33 24 26 38 44 63 79 126 153 136 168 78 138 122 97 100 107 99 103 90 34 63 103 102 90 75 75 64 63 57 47